Location: Peterborough
(44.3091°N, 78.3197°W)
Time: 00:23:14
(UTC-04:00)

S-56A Canister/Altair - Pass Details

Date: 25 March 2023
Orbit: 639 x 2492 km, 38.9° (Epoch: 02 June)

Event Time Altitude Azimuth Distance (km) Brightness Sun altitude
Rises 00:31:07 0° 277° (W) 5,869 12.3 -42.7°
Reaches altitude 10° 00:34:49 10° 274° (W) 4,994 11.8 -42.9°
Enters shadow 00:44:44 47° 249° (WSW) 3,066 10.3 -43.3°
